Time,TemperatureF,DewpointF,PressureIn,WindDirection,WindDirectionDegrees,WindSpeedMPH,WindSpeedGustMPH,Humidity,HourlyPrecipIn,Conditions,Clouds,dailyrainin,SoftwareType,DateUTC
2013-06-26 00:04:00,74.3,73.0,30.02,SE,140,0.0,1.0,97,0.00,,,0.00,weatherlink.com 1.10,2013-06-26 05:04:00,
2013-06-26 00:19:00,73.9,73.0,30.02,ESE,117,0.0,0.0,97,0.00,,,0.00,weatherlink.com 1.10,2013-06-26 05:19:00,
2013-06-26 00:34:00,73.6,73.0,30.02,ESE,117,0.0,0.0,97,0.00,,,0.00,weatherlink.com 1.10,2013-06-26 05:34:00,
2013-06-26 00:49:00,73.6,73.0,30.01,SSE,156,0.0,0.0,97,0.00,,,0.00,weatherlink.com 1.10,2013-06-26 05:49:00,
2013-06-26 01:04:00,73.5,73.0,30.01,SSE,157,0.0,0.0,97,0.00,,,0.00,weatherlink.com 1.10,2013-06-26 06:04:00,
2013-06-26 01:19:00,73.4,73.0,30.01,SSE,156,0.0,0.0,97,0.00,,,0.00,weatherlink.com 1.10,2013-06-26 06:19:00,
2013-06-26 01:34:00,72.8,72.0,30.00,SSE,156,0.0,0.0,97,0.00,,,0.00,weatherlink.com 1.10,2013-06-26 06:34:00,
2013-06-26 01:49:00,72.5,72.0,30.00,SSE,157,0.0,0.0,97,0.00,,,0.00,weatherlink.com 1.10,2013-06-26 06:49:00,
2013-06-26 02:05:00,72.2,71.0,30.00,SSE,156,0.0,0.0,97,0.00,,,0.00,weatherlink.com 1.10,2013-06-26 07:05:00,
2013-06-26 02:19:00,72.0,71.0,29.99,SSE,156,0.0,0.0,97,0.00,,,0.00,weatherlink.com 1.10,2013-06-26 07:19:00,
2013-06-26 02:34:00,71.9,71.0,29.99,SSE,157,0.0,0.0,97,0.00,,,0.00,weatherlink.com 1.10,2013-06-26 07:34:00,
2013-06-26 02:49:00,71.8,71.0,29.99,SSE,156,0.0,0.0,97,0.00,,,0.00,weatherlink.com 1.10,2013-06-26 07:49:00,
2013-06-26 03:04:00,71.7,71.0,29.98,SSE,156,0.0,0.0,97,0.00,,,0.00,weatherlink.com 1.10,2013-06-26 08:04:00,
2013-06-26 03:19:00,71.5,71.0,29.98,SSE,157,0.0,0.0,97,0.00,,,0.00,weatherlink.com 1.10,2013-06-26 08:19:00,
2013-06-26 03:34:00,71.3,70.0,29.99,SSE,156,0.0,0.0,97,0.00,,,0.00,weatherlink.com 1.10,2013-06-26 08:34:00,
2013-06-26 03:49:00,71.1,70.0,29.99,SSE,156,0.0,0.0,97,0.00,,,0.00,weatherlink.com 1.10,2013-06-26 08:49:00,
2013-06-26 04:04:00,71.1,70.0,29.99,SSE,156,0.0,0.0,97,0.00,,,0.00,weatherlink.com 1.10,2013-06-26 09:04:00,
2013-06-26 04:19:00,70.8,70.0,29.99,SSE,156,0.0,0.0,97,0.00,,,0.00,weatherlink.com 1.10,2013-06-26 09:19:00,
2013-06-26 04:34:00,70.6,70.0,30.00,SSE,157,0.0,0.0,97,0.00,,,0.00,weatherlink.com 1.10,2013-06-26 09:34:00,
2013-06-26 04:49:00,70.5,70.0,30.00,SSE,157,0.0,0.0,97,0.00,,,0.00,weatherlink.com 1.10,2013-06-26 09:49:00,
2013-06-26 05:04:00,70.0,69.0,30.00,SSE,156,0.0,0.0,97,0.00,,,0.00,weatherlink.com 1.10,2013-06-26 10:04:00,
2013-06-26 05:20:00,70.1,69.0,30.02,SSE,157,0.0,0.0,97,0.00,,,0.00,weatherlink.com 1.10,2013-06-26 10:20:00,
2013-06-26 05:35:00,69.9,69.0,30.02,East,96,0.0,0.0,97,0.00,,,0.00,weatherlink.com 1.10,2013-06-26 10:35:00,
2013-06-26 05:50:00,69.9,69.0,30.02,East,96,0.0,0.0,97,0.00,,,0.00,weatherlink.com 1.10,2013-06-26 10:50:00,
2013-06-26 06:05:00,69.9,69.0,30.03,East,96,0.0,0.0,97,0.00,,,0.00,weatherlink.com 1.10,2013-06-26 11:05:00,
2013-06-26 06:20:00,70.2,69.0,30.03,East,96,0.0,0.0,97,0.00,,,0.00,weatherlink.com 1.10,2013-06-26 11:20:00,
2013-06-26 06:35:00,70.7,70.0,30.04,East,96,0.0,0.0,97,0.00,,,0.00,weatherlink.com 1.10,2013-06-26 11:35:00,
2013-06-26 06:50:00,72.8,72.0,30.04,East,96,0.0,0.0,97,0.00,,,0.00,weatherlink.com 1.10,2013-06-26 11:50:00,
2013-06-26 07:05:00,74.6,74.0,30.04,East,96,0.0,0.0,97,0.00,,,0.00,weatherlink.com 1.10,2013-06-26 12:05:00,
2013-06-26 07:20:00,76.7,76.0,30.05,East,96,0.0,0.0,96,0.00,,,0.00,weatherlink.com 1.10,2013-06-26 12:20:00,
2013-06-26 07:35:00,80.6,77.0,30.06,East,96,0.0,0.0,89,0.00,,,0.00,weatherlink.com 1.10,2013-06-26 12:35:00,
2013-06-26 07:50:00,81.8,77.0,30.06,SW,219,0.0,1.0,86,0.00,,,0.00,weatherlink.com 1.10,2013-06-26 12:50:00,
2013-06-26 08:05:00,83.1,78.0,30.07,North,9,0.0,1.0,84,0.00,,,0.00,weatherlink.com 1.10,2013-06-26 13:05:00,
2013-06-26 08:20:00,83.7,78.0,30.07,East,101,0.0,1.0,82,0.00,,,0.00,weatherlink.com 1.10,2013-06-26 13:20:00,
2013-06-26 08:35:00,84.5,77.0,30.07,SSE,167,0.0,1.0,79,0.00,,,0.00,weatherlink.com 1.10,2013-06-26 13:35:00,
2013-06-26 08:50:00,85.2,78.0,30.07,SW,219,1.0,1.0,79,0.00,,,0.00,weatherlink.com 1.10,2013-06-26 13:50:00,
2013-06-26 09:05:00,85.6,78.0,30.07,NNE,25,1.0,3.0,78,0.00,,,0.00,weatherlink.com 1.10,2013-06-26 14:05:00,
2013-06-26 09:20:00,85.9,77.0,30.06,SSE,162,1.0,5.0,75,0.00,,,0.00,weatherlink.com 1.10,2013-06-26 14:20:00,
2013-06-26 09:35:00,85.3,77.0,30.05,NE,40,1.0,2.0,76,0.00,,,0.00,weatherlink.com 1.10,2013-06-26 14:35:00,
2013-06-26 09:50:00,85.0,77.0,30.05,ESE,111,0.0,2.0,77,0.00,,,0.00,weatherlink.com 1.10,2013-06-26 14:50:00,
2013-06-26 10:05:00,87.3,78.0,30.05,SW,214,1.0,5.0,73,0.00,,,0.00,weatherlink.com 1.10,2013-06-26 15:05:00,
2013-06-26 10:20:00,85.8,76.0,30.05,NE,44,0.0,4.0,72,0.00,,,0.00,weatherlink.com 1.10,2013-06-26 15:20:00,
2013-06-26 10:35:00,87.6,76.0,30.05,SW,219,2.0,2.0,69,0.00,,,0.00,weatherlink.com 1.10,2013-06-26 15:35:00,
2013-06-26 10:50:00,88.6,77.0,30.05,SW,231,1.0,3.0,68,0.00,,,0.00,weatherlink.com 1.10,2013-06-26 15:50:00,
2013-06-26 11:05:00,88.9,77.0,30.05,SW,229,1.0,6.0,67,0.00,,,0.00,weatherlink.com 1.10,2013-06-26 16:05:00,
2013-06-26 11:20:00,89.3,77.0,30.05,SE,128,0.0,3.0,66,0.00,,,0.00,weatherlink.com 1.10,2013-06-26 16:20:00,
2013-06-26 11:35:00,89.4,77.0,30.04,East,93,1.0,5.0,67,0.00,,,0.00,weatherlink.com 1.10,2013-06-26 16:35:00,
2013-06-26 11:50:00,90.1,76.0,30.04,NNW,329,0.0,3.0,63,0.00,,,0.00,weatherlink.com 1.10,2013-06-26 16:50:00,
2013-06-26 12:05:00,90.9,76.0,30.04,West,270,1.0,8.0,62,0.00,,,0.00,weatherlink.com 1.10,2013-06-26 17:05:00,
2013-06-26 12:21:00,90.9,75.0,30.03,SW,229,0.0,4.0,59,0.00,,,0.00,weatherlink.com 1.10,2013-06-26 17:21:00,
2013-06-26 12:36:00,92.1,76.0,30.03,SW,221,0.0,3.0,60,0.00,,,0.00,weatherlink.com 1.10,2013-06-26 17:36:00,
2013-06-26 12:51:00,91.6,74.0,30.02,NNE,32,4.0,4.0,57,0.00,,,0.00,weatherlink.com 1.10,2013-06-26 17:51:00,
2013-06-26 13:06:00,92.2,76.0,30.02,West,262,2.0,3.0,60,0.00,,,0.00,weatherlink.com 1.10,2013-06-26 18:06:00,
2013-06-26 13:21:00,92.4,75.0,30.01,West,278,0.0,1.0,57,0.00,,,0.00,weatherlink.com 1.10,2013-06-26 18:21:00,
2013-06-26 13:36:00,92.4,77.0,30.01,SW,223,1.0,3.0,61,0.00,,,0.00,weatherlink.com 1.10,2013-06-26 18:36:00,
2013-06-26 13:51:00,91.8,74.0,30.00,SE,140,1.0,3.0,56,0.00,,,0.00,weatherlink.com 1.10,2013-06-26 18:51:00,
2013-06-26 14:06:00,92.2,76.0,30.00,SW,221,0.0,5.0,59,0.00,,,0.00,weatherlink.com 1.10,2013-06-26 19:06:00,
2013-06-26 14:21:00,93.1,76.0,29.99,SSE,155,2.0,5.0,58,0.00,,,0.00,weatherlink.com 1.10,2013-06-26 19:21:00,
2013-06-26 14:36:00,93.6,78.0,29.99,SSW,208,0.0,3.0,61,0.00,,,0.00,weatherlink.com 1.10,2013-06-26 19:36:00,
2013-06-26 14:51:00,92.7,75.0,29.98,SW,231,2.0,5.0,57,0.00,,,0.00,weatherlink.com 1.10,2013-06-26 19:51:00,
2013-06-26 15:06:00,92.2,76.0,29.97,WSW,248,0.0,2.0,60,0.00,,,0.00,weatherlink.com 1.10,2013-06-26 20:06:00,
2013-06-26 15:21:00,92.0,76.0,29.97,SW,233,0.0,2.0,60,0.00,,,0.00,weatherlink.com 1.10,2013-06-26 20:21:00,
2013-06-26 15:36:00,92.1,78.0,29.97,WSW,255,0.0,1.0,63,0.00,,,0.00,weatherlink.com 1.10,2013-06-26 20:36:00,
2013-06-26 15:51:00,90.9,77.0,29.96,SE,131,0.0,2.0,64,0.00,,,0.00,weatherlink.com 1.10,2013-06-26 20:51:00,
2013-06-26 16:06:00,90.1,77.0,29.96,SSW,209,0.0,2.0,65,0.00,,,0.00,weatherlink.com 1.10,2013-06-26 21:06:00,
2013-06-26 16:21:00,90.1,79.0,29.96,ESE,113,0.0,1.0,70,0.00,,,0.00,weatherlink.com 1.10,2013-06-26 21:21:00,
2013-06-26 16:36:00,90.1,80.0,29.96,ESE,105,0.0,1.0,71,0.00,,,0.00,weatherlink.com 1.10,2013-06-26 21:36:00,
2013-06-26 16:51:00,90.2,78.0,29.95,East,81,0.0,1.0,67,0.00,,,0.00,weatherlink.com 1.10,2013-06-26 21:51:00,
2013-06-26 17:06:00,89.5,79.0,29.95,SE,139,0.0,1.0,71,0.00,,,0.00,weatherlink.com 1.10,2013-06-26 22:06:00,
2013-06-26 17:21:00,89.4,80.0,29.95,SE,134,0.0,1.0,73,0.00,,,0.00,weatherlink.com 1.10,2013-06-26 22:21:00,
2013-06-26 17:36:00,90.9,79.0,29.94,West,260,0.0,1.0,67,0.00,,,0.00,weatherlink.com 1.10,2013-06-26 22:36:00,
2013-06-26 17:51:00,89.6,79.0,29.94,SW,218,0.0,1.0,70,0.00,,,0.00,weatherlink.com 1.10,2013-06-26 22:51:00,
2013-06-26 18:06:00,89.2,78.0,29.95,SSW,192,0.0,1.0,69,0.00,,,0.00,weatherlink.com 1.10,2013-06-26 23:06:00,
2013-06-26 18:21:00,87.4,79.0,29.94,SE,132,0.0,1.0,75,0.00,,,0.00,weatherlink.com 1.10,2013-06-26 23:21:00,
2013-06-26 18:36:00,86.2,79.0,29.94,SE,131,0.0,0.0,80,0.00,,,0.00,weatherlink.com 1.10,2013-06-26 23:36:00,
2013-06-26 18:51:00,85.4,78.0,29.94,SW,217,0.0,2.0,79,0.00,,,0.00,weatherlink.com 1.10,2013-06-26 23:51:00,
2013-06-26 19:06:00,84.4,78.0,29.94,SSW,204,0.0,5.0,81,0.00,,,0.00,weatherlink.com 1.10,2013-06-27 00:06:00,
2013-06-26 19:21:00,83.8,77.0,29.95,SE,142,0.0,5.0,81,0.00,,,0.00,weatherlink.com 1.10,2013-06-27 00:21:00,
2013-06-26 19:36:00,83.0,77.0,29.94,SSE,156,0.0,3.0,82,0.00,,,0.00,weatherlink.com 1.10,2013-06-27 00:36:00,
2013-06-26 19:51:00,82.4,78.0,29.95,ENE,60,0.0,2.0,85,0.00,,,0.00,weatherlink.com 1.10,2013-06-27 00:51:00,
2013-06-26 20:06:00,81.8,77.0,29.95,South,173,0.0,1.0,86,0.00,,,0.00,weatherlink.com 1.10,2013-06-27 01:06:00,
2013-06-26 20:21:00,81.4,77.0,29.95,SSW,194,0.0,2.0,86,0.00,,,0.00,weatherlink.com 1.10,2013-06-27 01:21:00,
2013-06-26 20:36:00,80.7,77.0,29.95,SSW,193,1.0,3.0,87,0.00,,,0.00,weatherlink.com 1.10,2013-06-27 01:36:00,
2013-06-26 20:51:00,80.2,76.0,29.96,SSE,162,0.0,2.0,88,0.00,,,0.00,weatherlink.com 1.10,2013-06-27 01:51:00,
2013-06-26 21:06:00,80.0,76.0,29.96,South,170,1.0,5.0,88,0.00,,,0.00,weatherlink.com 1.10,2013-06-27 02:06:00,
2013-06-26 21:21:00,79.9,76.0,29.97,SSW,201,0.0,3.0,87,0.00,,,0.00,weatherlink.com 1.10,2013-06-27 02:21:00,
2013-06-26 21:36:00,79.5,76.0,29.97,SSE,165,0.0,3.0,88,0.00,,,0.00,weatherlink.com 1.10,2013-06-27 02:36:00,
2013-06-26 21:51:00,78.9,76.0,29.98,SSE,158,0.0,0.0,89,0.00,,,0.00,weatherlink.com 1.10,2013-06-27 02:51:00,
2013-06-26 22:06:00,78.3,75.0,29.98,SSE,151,0.0,0.0,90,0.00,,,0.00,weatherlink.com 1.10,2013-06-27 03:06:00,
2013-06-26 22:21:00,77.8,75.0,29.98,SSE,156,0.0,1.0,92,0.00,,,0.00,weatherlink.com 1.10,2013-06-27 03:21:00,
2013-06-26 22:36:00,77.5,75.0,29.98,SE,138,1.0,1.0,92,0.00,,,0.00,weatherlink.com 1.10,2013-06-27 03:36:00,
2013-06-26 22:51:00,77.7,75.0,29.98,SSE,159,0.0,1.0,92,0.00,,,0.00,weatherlink.com 1.10,2013-06-27 03:51:00,
2013-06-26 23:06:00,77.6,75.0,29.98,SW,214,0.0,2.0,92,0.00,,,0.00,weatherlink.com 1.10,2013-06-27 04:06:00,
2013-06-26 23:21:00,77.2,75.0,29.98,SSW,205,0.0,1.0,92,0.00,,,0.00,weatherlink.com 1.10,2013-06-27 04:21:00,
2013-06-26 23:36:00,77.0,75.0,29.98,SW,228,0.0,1.0,93,0.00,,,0.00,weatherlink.com 1.10,2013-06-27 04:36:00,
2013-06-26 23:51:00,76.0,74.0,29.98,SW,228,0.0,0.0,94,0.00,,,0.00,weatherlink.com 1.10,2013-06-27 04:51:00,